Napa County, CA

4:31 AM PDT on March 30, 2017 (GMT -0700)
Napa County

Weather History for KAPC - November, 2013

Change the Weather History Date:

Sunday, November 10, 2013

  Actual Average Record
Temperature  
Mean Temperature 50 °F 53 °F  
Max Temperature 63 °F 66 °F 80 °F (2016)
Min Temperature 37 °F 40 °F 28 °F (2000)
Degree Days  
Heating Degree Days 15    
Month to date heating degree days 102  
Since 1 July heating degree days 412  
Cooling Degree Days 0    
Month to date cooling degree days 0  
Year to date cooling degree days 303  
Growing Degree Days 1 (Base 50)    
Moisture  
Dew Point 43 °F    
Average Humidity 80    
Maximum Humidity 100    
Minimum Humidity 60    
Precipitation  
Precipitation 0.00 in - 1.04 in (1993)
Month to date precipitation 0.00  
Year to date precipitation 2.82  
Since 1 July precipitation 0.85  
Sea Level Pressure  
Sea Level Pressure 30.07 in    
Wind  
Wind Speed 3 mph (North)    
Max Wind Speed 10 mph    
Max Gust Speed 13 mph    
Visibility 5 miles    
Events Fog    
T = Trace of Precipitation, MM = Missing Value Source: NWS Daily Summary

Daily Weather History Graph

Daily Weather History Graph

Search for Another Location

Airport or City:

Trip Planner

Search our weather history database for the weather conditions in past years. The results will help you decide how hot, cold, wet, or windy it might be!

Date:

Astronomy

Nov. 10, 2013 Rise Set
Actual Time 6:45 AM PST 5:00 PM PST
Civil Twilight 6:17 AM PST 5:28 PM PST
Nautical Twilight 5:45 AM PST 6:00 PM PST
Astronomical Twilight 5:14 AM PST 6:31 PM PST
Moon 1:03 PM PST (11/10) No Moon Set
Length of Visible Light 11h 11m
Length of Day
10h 15m
First Quarter, 56% of the Moon is Illuminated
Nov 10
First Quarter
Nov 17
Full
Nov 25
Last Quarter
Dec 2
New
Dec 9
First Quarter

Hourly Weather History & Observations

Time (PST) Temp. Windchill Dew Point Humidity Pressure Visibility Wind Dir Wind Speed Gust Speed Precip Events Conditions
12:54 AM 44.1 °F - 43.0 °F 96% 30.01 in 5.0 mi Calm Calm - N/A   Clear
1:11 AM 46.4 °F - 44.6 °F 93% 30.04 in 2.5 mi Calm Calm - N/A   Partly Cloudy
1:22 AM 46.4 °F 44.3 °F 44.6 °F 93% 30.04 in 1.2 mi North 4.6 mph - N/A   Partly Cloudy
1:30 AM 42.8 °F 39.3 °F 42.8 °F 100% 30.04 in 4.0 mi NNE 5.8 mph - N/A   Partly Cloudy
1:54 AM 44.1 °F 40.1 °F 43.0 °F 96% 30.01 in 8.0 mi North 6.9 mph - N/A   Clear
2:54 AM 43.0 °F 40.3 °F 42.1 °F 97% 30.01 in 5.0 mi East 4.6 mph - N/A   Clear
3:54 AM 45.0 °F - 44.1 °F 97% 30.04 in 7.0 mi Calm Calm - N/A   Clear
4:37 AM 41.0 °F - 39.2 °F 93% 30.06 in 1.5 mi Calm Calm - N/A   Partly Cloudy
4:39 AM 39.2 °F - 39.2 °F 100% 30.06 in 1.0 mi Calm Calm - N/A   Mist
4:42 AM 39.2 °F - 39.2 °F 100% 30.06 in 0.5 mi Calm Calm - N/A Fog Fog
4:54 AM 39.9 °F - 39.9 °F 100% 30.04 in 0.5 mi Calm Calm - N/A Fog Fog
5:47 AM 39.2 °F 37.0 °F 37.4 °F 93% 30.08 in 0.2 mi North 3.5 mph - N/A Fog Fog
5:54 AM 39.9 °F 36.7 °F 39.0 °F 97% 30.06 in 0.5 mi North 4.6 mph - N/A Fog Fog
5:57 AM 41.0 °F 38.0 °F 39.2 °F 93% 30.08 in 1.0 mi North 4.6 mph - N/A   Overcast
6:00 AM 42.8 °F 39.3 °F 41.0 °F 93% 30.08 in 3.0 mi NNE 5.8 mph - N/A   Overcast
6:54 AM 44.1 °F - 43.0 °F 96% 30.06 in 7.0 mi Calm Calm - N/A   Overcast
7:54 AM 45.0 °F 43.5 °F 44.1 °F 97% 30.09 in 8.0 mi NW 3.5 mph - N/A   Overcast
8:54 AM 48.0 °F - 46.9 °F 96% 30.10 in 4.0 mi NNW 3.5 mph - N/A   Overcast
9:54 AM 54.0 °F - 48.0 °F 80% 30.09 in 7.0 mi Calm Calm - N/A   Scattered Clouds
10:54 AM 57.0 °F - 48.0 °F 72% 30.10 in 10.0 mi Variable 3.5 mph - N/A   Clear
11:54 AM 59.0 °F - 48.0 °F 67% 30.09 in 10.0 mi SW 4.6 mph - N/A   Clear
12:54 PM 61.0 °F - 48.9 °F 64% 30.06 in 10.0 mi South 6.9 mph - N/A   Clear
1:54 PM 62.1 °F - 48.9 °F 62% 30.04 in 10.0 mi SSW 5.8 mph - N/A   Clear
2:54 PM 63.0 °F - 48.0 °F 58% 30.05 in 10.0 mi SSW 8.1 mph - N/A   Clear
3:54 PM 60.1 °F - 48.9 °F 67% 30.05 in 10.0 mi SSW 8.1 mph - N/A   Clear
4:54 PM 55.9 °F - 48.0 °F 75% 30.05 in 10.0 mi SSW 5.8 mph - N/A   Clear
5:54 PM 52.0 °F - 48.0 °F 86% 30.06 in 10.0 mi Calm Calm - N/A   Clear
6:54 PM 48.0 °F - 45.0 °F 89% 30.07 in 10.0 mi Calm Calm - N/A   Clear
7:54 PM 44.1 °F 40.8 °F 41.0 °F 89% 30.07 in 8.0 mi East 5.8 mph - N/A   Clear
8:54 PM 48.9 °F - 46.9 °F 93% 30.08 in 7.0 mi South 4.6 mph - N/A   Clear
9:54 PM 46.9 °F - 45.0 °F 93% 30.09 in 3.0 mi Calm Calm - N/A   Clear
10:46 PM 41.0 °F - 39.2 °F 93% 30.12 in 1.8 mi Calm Calm - N/A   Partly Cloudy
10:54 PM 42.1 °F - 39.9 °F 92% 30.09 in 2.5 mi Calm Calm - N/A   Partly Cloudy
11:06 PM 42.8 °F - 41.0 °F 93% 30.11 in 1.5 mi Calm Calm - N/A   Scattered Clouds
11:24 PM 39.2 °F 37.0 °F 39.2 °F 100% 30.12 in 0.8 mi North 3.5 mph - N/A   Mist
11:34 PM 42.8 °F 40.1 °F 39.2 °F 87% 30.12 in 2.5 mi North 4.6 mph - N/A   Scattered Clouds
11:42 PM 42.8 °F - 41.0 °F 93% 30.12 in 5.0 mi Calm Calm - N/A   Partly Cloudy
11:51 PM 39.2 °F - 39.2 °F 100% 30.11 in 1.8 mi Calm Calm - N/A   Partly Cloudy
11:54 PM 39.9 °F - 39.0 °F 97% 30.09 in 1.8 mi Calm Calm - N/A   Partly Cloudy